Torna al catalogo

THOR ABLESTAR DEB

AttivoLEO
NORAD 3125·DEBRIS·🇺🇸 United States

Lanciato Jun 29, 1961 da Cape Canaveral Space Force Station

Loading…

Prossimi Passaggi (prossime 24 ore)

TLE

AggiornatoSource: Space-Track

Epoca: Sep 14, 2026, 11:54 UTC

1 03125U 61015HY  26257.49624803  .00000235  00000-0  51073-3 0  9991
2 03125  67.5569  63.7087 0301432 338.8532  50.5369 13.27679902159387

Traccia THOR ABLESTAR DEB in tempo reale con AllMySat

Download on the App Store